Wind_Speed
20 20 21 18 7 7 16 19 20 8 1 7 7 8 12 20 13 6 11 16 26 24 25 25 25 23 21 19 19 18 17 17 17 15 14 13 13 13 12 12 10 9 8 7 6 7 8 9 10
17 20 21 11 11 12 14 17 3 7 15 5 1 7 5 15 17 14 13 19 23 22 23 22 25 24 21 19 18 18 16 17 17 16 14 13 12 11 11 10 9 7 6 6 6 7 8 8 8
18 18 10 9 12 15 10 9 21 10 7 3 1 1 5 10 12 11 17 20 22 21 20 20 23 22 21 20 19 18 17 17 18 16 14 13 12 11 10 9 7 6 6 6 6 6 7 7 6
15 11 8 12 18 21 21 2 10 2 6 2 6 8 9 8 6 15 15 19 18 19 20 19 23 22 21 19 19 19 19 17 18 17 14 12 11 11 10 9 8 6 6 6 6 6 6 6 5
16 7 11 16 19 21 16 8 5 9 3 4 2 7 15 11 14 15 14 16 16 20 20 17 22 21 20 18 18 20 20 20 18 18 16 12 11 10 9 9 8 7 6 5 5 5 5 4 3
10 10 14 15 20 21 17 7 6 9 12 5 6 1 13 16 15 13 12 13 14 22 21 19 24 22 20 19 17 18 21 22 21 19 17 13 11 10 9 9 9 8 7 6 6 5 5 4 4
13 12 18 21 21 21 19 12 10 8 11 5 4 4 11 14 8 7 9 9 15 19 21 16 25 23 21 18 17 17 20 23 22 21 19 15 12 11 10 10 9 8 7 7 5 5 5 5 5
11 11 20 19 17 22 20 9 12 11 13 10 4 3 9 9 3 6 7 12 15 15 18 16 19 19 20 20 18 17 19 21 22 21 19 17 14 12 12 11 11 10 8 7 7 6 6 6 7
12 12 14 18 19 20 20 11 10 11 13 7 2 10 5 7 3 9 12 13 16 18 21 18 18 19 17 16 19 18 19 21 21 21 20 17 15 14 14 14 12 11 11 10 9 8 8 8 9
15 10 19 17 18 14 14 9 14 5 17 10 10 13 18 12 7 10 12 13 16 20 21 23 22 24 21 21 20 21 20 22 24 23 22 21 17 16 15 14 17 15 13 13 12 10 9 10 10
15 17 17 18 20 3 12 14 6 11 12 10 11 15 15 16 14 11 14 15 17 19 20 29 27 26 23 22 26 22 22 21 22 22 22 22 19 19 18 21 19 18 17 16 15 13 13 11 6
19 21 17 20 17 2 10 13 12 12 15 13 12 14 11 12 7 9 12 19 19 17 24 20 30 28 25 21 24 21 23 22 22 23 25 23 24 23 24 23 22 21 19 19 16 13 10 10 9
18 18 18 18 16 12 10 14 14 16 13 11 15 14 13 12 11 13 19 22 14 15 6 25 26 24 24 25 16 22 24 24 23 24 27 26 25 24 26 26 22 24 22 18 21 19 19 15 15
14 19 16 18 14 14 16 16 16 17 16 14 12 12 15 10 12 14 16 16 14 12 5 12 15 12 11 29 22 13 24 23 26 27 27 31 26 30 27 25 26 22 22 24 19 22 19 17 14
13 17 13 15 17 16 16 19 18 17 17 14 14 13 13 13 16 12 15 6 9 14 5 18 26 28 21 28 26 24 16 21 20 26 27 33 34 26 27 28 23 27 22 22 22 19 19 15 14
12 14 16 19 22 21 18 18 18 18 21 18 11 16 12 13 12 14 14 12 4 5 8 4 19 28 40 27 19 19 21 19 27 20 24 29 33 33 24 26 31 26 20 24 18 21 16 18 19
14 15 20 20 20 17 18 16 18 17 3 7 11 10 13 9 9 15 12 6 1 5 11 6 8 4 19 24 23 21 21 23 21 25 22 26 32 35 29 28 26 26 28 27 28 22 23 22 24
17 19 17 16 14 13 13 14 15 13 14 11 13 13 11 12 11 13 15 13 6 7 8 8 9 13 12 6 23 21 22 23 23 27 27 24 30 34 37 28 30 29 33 32 29 34 30 30 24
20 21 16 15 9 13 13 12 15 13 16 15 15 12 13 13 11 12 12 14 11 10 5 4 6 6 11 15 12 18 21 21 23 26 26 28 28 33 32 31 28 26 32 36 34 33 22 25 23
18 17 18 16 19 14 15 17 17 18 18 16 14 13 13 12 13 11 10 10 12 7 3 2 4 7 8 9 16 21 19 22 27 27 32 34 28 33 32 34 33 30 26 30 27 27 23 21 24
17 15 16 18 17 18 15 16 17 19 19 19 17 14 13 11 11 8 4 13 9 6 6 7 7 4 7 12 15 18 18 22 23 20 28 31 34 32 34 35 34 33 34 29 32 30 29 23 23
18 16 17 17 16 13 15 15 17 16 19 18 20 15 11 10 8 5 8 8 8 3 5 8 7 8 12 13 13 15 17 17 19 26 25 30 38 43 39 37 36 37 35 36 32 33 31 26 20
15 15 16 17 15 17 19 12 15 17 17 18 16 17 13 7 10 6 5 5 4 6 6 6 4 7 13 11 11 12 16 20 19 22 26 36 33 42 41 46 44 38 41 39 36 33 35 34 28
15 13 15 15 14 15 18 18 16 17 18 17 15 16 12 12 10 5 3 2 5 9 8 11 10 12 12 13 14 14 16 19 22 25 26 29 26 38 31 39 40 50 43 38 39 36 36 34 35
9 5 8 12 13 15 20 17 16 17 7 4 8 9 10 10 7 4 4 2 5 7 10 9 14 16 15 15 18 17 17 19 22 24 26 26 29 32 32 52 48 42 39 38 34 36 35 37 34
18 16 12 19 14 17 19 16 11 6 6 9 5 8 9 9 6 4 3 5 11 10 7 10 14 17 17 16 19 17 15 17 22 23 26 28 29 33 39 38 38 52 47 37 36 35 35 37 38
14 15 12 10 17 14 15 22 20 18 13 13 9 7 8 4 5 2 5 8 7 11 9 6 13 14 16 15 16 13 18 19 23 26 29 28 28 30 42 48 33 31 7 35 42 33 37 37 34
15 12 8 5 6 17 15 13 11 9 9 2 8 10 7 9 8 6 8 6 9 11 11 11 6 10 16 20 19 13 15 22 22 20 23 28 29 33 34 38 39 28 36 58 47 38 40 36 34
14 14 13 14 12 5 10 9 3 5 8 2 6 6 7 7 8 9 7 11 12 11 14 12 7 9 11 18 15 18 20 18 20 16 19 20 20 23 31 38 37 29 36 41 37 36 30 17 14
17 19 13 9 9 12 11 9 14 12 9 8 12 9 9 10 8 10 10 12 10 12 15 16 9 8 12 17 15 15 17 17 19 20 21 24 23 23 24 29 39 35 28 29 27 20 34 22 41
Wind_Direction
307 309 306 289 256 227 257 256 268 160 135 62 39 316 331 51 35 65 127 120 121 139 153 153 156 159 160 161 164 164 166 166 164 159 151 148 145 144 144 140 137 130 127 127 127 123 122 121 121
304 304 294 263 249 246 244 268 119 331 62 60 228 248 247 70 90 113 113 119 123 142 152 158 160 162 166 167 169 172 173 173 172 168 160 157 154 155 153 152 150 143 140 138 134 130 130 129 126
287 282 283 255 243 246 259 357 302 73 51 298 297 290 30 59 58 100 124 126 124 143 150 168 163 166 171 175 176 179 181 180 179 176 170 166 164 163 163 163 159 157 155 149 143 141 140 141 138
278 272 239 263 262 248 257 239 221 326 134 337 336 102 88 42 62 103 130 138 137 145 156 171 169 170 173 179 186 185 186 188 186 183 180 176 175 174 174 173 168 171 170 161 156 154 158 156 152
253 259 265 252 245 262 280 226 94 258 43 84 317 114 106 91 101 117 135 144 149 146 160 169 177 177 178 184 189 191 190 193 194 191 188 183 186 186 184 182 177 176 179 172 172 170 172 176 184
258 232 248 252 253 257 259 227 160 250 296 125 272 107 109 129 119 132 135 148 151 140 157 172 182 183 184 187 192 195 195 194 195 197 196 192 191 192 195 193 189 186 185 185 184 186 191 203 218
249 246 241 250 261 263 258 178 224 270 267 267 98 209 123 101 83 90 142 147 144 143 146 168 180 187 188 191 193 197 196 196 198 199 200 200 199 201 201 198 196 197 198 196 202 202 205 213 228
240 254 265 262 253 259 272 208 200 231 259 102 81 258 92 89 130 167 208 158 156 152 149 153 175 184 190 194 197 197 196 200 203 204 204 204 204 206 208 205 204 205 205 210 209 218 231 238 249
238 247 246 247 269 277 273 278 222 228 252 277 117 256 324 96 266 212 205 180 175 161 154 161 175 187 189 194 201 199 200 203 209 209 210 209 206 213 215 209 207 212 210 210 215 224 239 251 261
219 226 248 260 243 261 306 275 282 214 253 229 253 274 282 262 259 267 216 226 185 170 170 169 177 185 190 195 201 205 204 205 205 210 211 208 200 214 208 210 207 213 219 218 218 219 234 251 262
221 242 245 242 272 277 303 304 303 273 270 241 257 264 237 250 221 245 261 242 218 198 184 173 175 183 186 205 196 201 197 206 209 204 209 211 201 203 206 207 208 214 215 220 219 223 229 241 248
227 241 248 268 275 195 261 274 280 264 266 274 286 283 290 271 275 254 236 265 264 209 190 200 167 179 188 201 189 190 193 202 206 211 208 205 203 204 199 205 209 217 218 214 221 224 220 215 220
233 249 248 265 265 276 261 267 261 251 256 266 261 282 277 278 277 263 268 274 278 287 209 151 153 181 190 203 204 191 193 202 203 207 212 208 210 204 204 203 202 204 202 211 205 221 226 215 229
234 247 252 265 250 255 251 253 253 251 254 237 243 241 262 264 270 256 260 256 279 279 127 180 170 138 203 218 218 204 201 202 203 206 207 207 212 207 206 206 215 208 196 205 200 211 217 214 223
261 260 257 253 262 245 248 251 251 254 258 223 233 229 240 233 238 252 247 283 267 264 267 167 196 195 200 225 220 231 221 208 217 211 208 210 210 212 211 206 208 217 205 205 204 207 210 213 223
269 246 257 246 231 228 232 256 257 256 223 227 233 254 252 251 245 264 256 245 242 312 342 279 185 191 198 199 212 231 237 227 229 225 214 218 212 212 218 209 214 214 212 212 210 202 204 222 231
231 247 241 243 246 215 212 247 258 244 122 225 248 233 245 238 218 250 270 285 356 17 7 347 325 320 202 203 203 211 222 233 235 233 232 221 214 212 212 214 215 211 211 207 209 207 215 226 226
240 222 234 259 262 188 228 249 248 265 195 215 227 231 243 251 232 202 206 245 96 62 1 341 300 279 274 247 215 210 217 223 228 235 231 225 214 211 214 218 218 223 220 215 211 212 209 221 226
275 286 294 292 243 218 214 243 261 276 270 221 233 232 225 229 236 226 218 185 186 120 86 348 321 310 288 280 256 212 219 228 230 231 235 229 226 204 207 208 218 230 215 211 214 213 219 216 224
259 261 274 278 290 286 275 259 256 254 257 259 248 249 243 233 225 228 222 172 122 127 168 75 9 348 330 294 277 273 250 227 226 226 230 231 232 207 210 207 212 218 224 220 218 213 207 213 212
258 260 270 272 277 269 257 266 262 255 254 256 255 242 243 247 245 225 162 92 89 54 6 322 336 341 330 312 302 300 284 265 269 261 223 219 216 220 215 214 216 217 223 219 211 204 198 198 201
268 249 253 262 267 267 267 269 258 261 234 234 230 226 231 260 267 155 96 88 85 35 317 350 349 353 325 322 317 312 303 292 279 257 256 224 217 212 212 216 214 218 219 221 217 213 208 202 198
253 273 281 275 271 273 262 264 264 260 258 251 228 211 199 131 91 77 75 61 33 355 310 323 353 330 314 303 302 295 296 297 298 283 278 248 226 238 208 211 211 211 213 212 209 205 206 207 204
264 281 273 267 270 260 256 255 260 261 261 259 241 187 186 144 131 129 149 44 311 287 341 325 341 309 293 312 301 294 282 282 289 292 292 290 281 242 222 228 224 213 207 210 208 208 204 204 211
266 238 272 259 244 252 244 245 251 274 342 321 113 126 112 118 130 180 220 223 326 319 302 320 314 316 302 297 292 287 282 285 275 275 279 278 279 281 225 222 214 212 210 207 208 205 205 207 210
246 238 235 258 266 281 303 286 280 348 312 329 245 122 122 139 178 161 24 325 292 300 320 324 311 301 298 292 289 292 284 284 279 276 269 270 270 270 277 271 240 225 204 200 209 204 208 209 210
276 275 286 307 298 285 271 276 283 284 347 214 226 179 141 195 150 126 257 267 312 307 301 296 296 306 296 294 301 299 309 310 277 269 270 278 276 278 272 277 284 224 177 263 226 201 206 214 212
264 286 304 288 277 263 262 278 296 8 359 348 288 296 169 183 207 224 251 303 315 300 302 273 311 302 311 311 305 304 308 305 305 309 294 270 270 273 280 278 274 237 201 216 223 214 213 217 230
261 252 249 240 233 257 282 271 336 131 304 331 301 286 231 239 231 260 325 306 285 288 290 275 254 285 297 297 308 312 310 305 312 304 309 312 303 311 280 277 279 268 232 228 227 232 232 211 268
263 279 241 260 249 253 273 266 308 304 325 296 339 314 279 281 293 305 284 271 272 285 275 291 259 265 287 297 304 305 293 295 304 307 309 310 314 309 319 324 290 268 246 232 210 234 238 215 214
Height
760 756 750 743 764 749 753 726 690 705 707 693 694 705 710 704 723 750 726 725 731 739 741 745 750 755 759 764 767 771 774 778 780 783 786 789 791 793 796 798 800 801 802 804 805 806 806 807 807
759 756 748 743 764 764 744 708 710 704 699 697 700 701 705 720 707 718 725 729 734 741 744 747 750 755 760 764 768 772 775 779 782 785 787 790 792 795 797 799 801 803 804 805 806 807 807 808 810
758 756 753 751 753 759 743 726 713 701 700 701 704 698 704 720 710 719 727 731 737 743 747 749 752 756 760 764 768 772 776 779 782 786 788 790 793 795 798 801 802 804 805 806 807 808 809 810 810
757 749 746 761 755 730 722 714 710 708 704 703 702 713 710 714 714 721 727 730 737 743 747 749 753 757 761 764 768 772 776 780 783 786 789 792 794 796 798 800 802 805 806 807 808 809 810 810 811
754 749 761 756 745 725 708 703 706 714 708 708 707 716 722 718 720 725 728 731 735 740 746 750 754 757 760 765 767 771 774 779 783 786 788 791 794 797 799 800 802 804 807 808 809 810 811 812 812
754 744 767 763 742 719 705 697 709 716 708 710 718 716 720 718 721 726 729 731 734 738 743 748 753 757 760 763 766 769 773 776 781 785 788 791 793 796 799 801 802 804 805 808 809 811 811 812 812
755 752 757 750 740 725 709 696 713 716 717 715 706 726 720 719 725 726 729 732 734 740 743 748 752 756 760 762 765 768 771 775 778 782 786 790 793 796 798 800 802 804 806 807 810 811 811 811 812
747 750 755 742 742 735 703 697 701 713 722 709 713 733 737 727 729 729 729 731 734 740 744 749 754 756 759 762 765 766 770 775 778 781 784 787 791 794 796 799 801 803 806 808 808 810 812 812 812
741 761 762 752 746 732 704 709 701 702 715 712 717 721 721 725 727 727 726 726 729 735 741 747 753 757 760 763 764 767 769 771 777 779 783 786 789 792 795 796 799 801 802 805 807 808 810 811 812
745 761 751 727 723 724 711 709 709 715 720 723 724 721 721 725 728 725 723 724 725 728 735 741 747 752 757 760 763 765 768 770 771 775 778 782 786 789 793 794 797 799 801 803 804 805 807 809 809
742 751 732 727 716 715 724 720 713 721 728 721 725 721 718 720 722 725 723 721 722 724 728 730 738 747 754 758 758 761 765 768 770 773 775 778 782 787 790 792 793 797 797 800 802 803 803 805 806
744 733 729 724 715 721 730 723 727 727 726 716 717 718 717 717 719 722 723 723 719 720 722 735 730 740 748 754 755 760 762 765 769 771 774 774 778 781 784 786 789 791 793 796 798 800 800 801 803
732 730 724 719 718 719 722 728 727 726 719 718 720 720 720 720 721 723 723 722 720 720 722 722 728 738 745 748 752 754 759 761 764 767 771 773 773 775 781 782 784 784 788 791 795 797 798 799 801
718 721 721 719 718 721 726 727 725 722 716 718 719 724 722 721 721 722 722 720 721 721 723 726 727 738 748 760 746 752 755 758 758 762 764 765 771 772 774 778 783 783 784 785 789 792 795 795 797
715 727 723 721 718 723 720 730 727 716 712 714 718 718 719 718 720 719 720 719 720 722 726 730 730 735 750 750 745 749 752 754 758 758 757 761 765 769 770 773 777 780 782 784 785 789 791 793 794
728 727 743 720 714 714 721 740 716 701 704 712 715 715 714 713 715 716 717 719 720 721 725 729 731 729 734 737 741 747 751 753 754 755 756 757 760 765 767 769 773 776 778 780 782 782 786 789 791
732 746 732 720 697 700 713 728 710 699 705 712 712 712 713 712 714 716 716 717 719 721 724 728 730 732 735 734 740 744 747 748 749 751 754 754 756 761 765 766 769 772 773 773 775 778 781 786 786
738 730 721 719 698 700 715 719 709 700 703 709 712 711 711 711 709 711 715 718 719 722 726 729 731 731 733 737 739 739 740 741 742 745 747 748 749 754 758 762 767 768 769 769 767 771 770 776 779
719 717 718 704 692 702 710 714 707 699 699 702 703 704 706 707 706 708 710 714 718 722 729 732 733 733 733 732 734 733 733 735 737 739 741 742 743 745 748 755 759 763 763 761 763 765 768 768 775
716 723 724 713 701 707 710 714 707 702 700 696 698 700 700 701 702 703 707 710 716 721 727 730 732 733 733 732 731 731 729 728 728 730 731 734 737 739 745 745 749 753 758 758 760 760 761 765 768
719 727 728 726 711 704 709 719 715 700 694 691 689 690 693 696 698 700 703 710 716 721 723 726 728 730 732 731 730 728 726 724 723 724 724 726 728 730 735 738 739 742 747 748 749 751 751 755 760
732 710 717 722 728 738 708 732 707 692 687 682 684 685 689 692 693 696 705 712 716 721 722 724 727 728 730 730 729 727 725 724 722 721 720 718 717 713 716 723 724 729 734 738 739 743 745 749 750
721 708 713 714 720 723 720 727 710 689 692 682 675 676 681 687 695 701 706 712 717 720 722 725 727 729 730 728 726 725 724 722 720 719 717 716 709 710 689 703 703 709 710 715 720 727 732 735 741
703 713 715 716 723 737 723 721 712 695 681 671 661 665 674 685 695 702 707 712 717 719 722 725 727 727 727 725 724 722 721 720 718 716 713 709 700 695 696 694 705 686 687 701 711 716 718 723 731
716 735 755 752 740 732 702 707 693 672 664 668 669 674 678 687 695 702 705 710 715 719 721 723 724 725 724 722 721 719 717 716 715 713 710 707 702 692 684 686 685 689 695 693 703 706 714 716 720
717 721 737 752 737 719 695 708 698 666 668 668 666 672 679 688 693 699 706 711 714 716 719 721 723 723 722 720 718 716 714 712 710 708 705 702 698 693 683 673 679 674 672 682 694 700 706 710 708
716 722 709 730 727 734 721 698 678 667 669 664 671 676 685 691 693 700 706 709 711 714 715 717 720 719 718 716 714 712 710 708 705 702 700 697 694 689 683 671 675 687 690 711 705 692 697 701 701
712 710 738 739 763 747 715 704 701 689 690 691 687 685 686 689 693 698 700 704 707 710 711 713 714 715 715 714 711 708 707 704 701 699 696 692 689 687 683 674 669 676 675 689 690 686 689 692 697
718 722 723 730 739 762 744 718 680 698 690 691 689 686 688 688 691 693 696 700 703 705 707 707 708 710 711 711 708 706 704 702 699 696 693 691 685 682 679 672 667 668 673 678 682 689 683 685 693
715 720 725 747 747 733 737 731 692 690 688 691 691 686 686 686 688 691 693 695 697 701 702 702 702 704 705 707 705 703 701 699 696 693 690 688 684 679 678 673 668 667 659 660 672 674 680 690 697